Theta_e
326 324 322 322 321 321 321 321 321 321 321 320 320 320 320 321 320 320 321 321 320 320 319 322 322 323 322 308 307 335 353 345 335 317 314 316 315 324 323 326 328 325 328 330 330 330 330
326 324 323 323 322 322 321 320 320 320 320 320 320 320 320 319 319 319 318 318 317 318 319 322 323 323 319 303 314 336 336 325 319 315 315 316 316 327 327 327 327 329 329 328 329 329 329
323 323 322 321 321 321 320 319 319 319 319 319 319 319 319 319 318 317 317 316 316 317 320 322 323 323 315 310 324 330 325 317 317 316 313 316 330 318 330 326 329 327 322 326 326 326 325
323 322 321 321 320 320 319 318 318 318 319 318 318 318 318 319 318 317 316 315 316 321 322 324 325 321 310 319 324 322 316 314 315 316 316 318 329 330 328 331 324 318 323 317 324 326 326
322 321 321 320 320 319 319 318 318 318 318 318 318 318 318 318 318 316 315 316 321 324 325 326 321 318 311 325 322 322 317 313 313 314 316 319 329 327 326 320 316 316 308 314 318 327 323
321 320 319 319 319 319 319 318 318 318 318 318 318 318 317 317 316 315 314 316 327 325 324 325 322 313 316 314 322 319 317 314 313 312 312 312 317 319 320 315 303 305 305 312 314 322 323
319 318 318 318 318 318 318 318 318 318 318 318 318 317 317 316 315 313 316 320 312 311 319 314 314 311 313 319 321 318 316 315 313 311 307 309 307 306 310 316 312 311 309 309 317 322 322
318 318 318 318 318 318 318 318 317 317 318 318 317 317 316 315 314 313 312 307 314 315 309 314 316 315 316 318 313 314 318 314 313 307 306 306 305 310 310 316 314 311 307 308 317 323 322
318 317 317 317 318 317 317 317 317 317 317 317 317 316 315 314 313 313 313 313 318 315 308 308 310 312 314 316 311 314 316 311 310 305 304 305 307 309 309 307 307 308 306 308 311 321 322
317 317 317 317 317 317 317 317 316 316 316 316 316 316 315 311 312 313 315 318 318 316 302 303 306 311 315 315 310 318 318 315 306 306 303 304 308 304 304 303 307 303 310 310 315 314 307
318 317 317 317 317 317 317 316 316 316 316 316 316 315 313 311 310 313 314 317 316 309 292 303 308 317 315 312 312 310 314 313 306 304 304 304 303 304 305 305 308 304 315 312 316 314 312
317 316 316 316 316 316 316 316 316 316 316 316 315 314 312 311 312 315 317 316 310 300 291 303 308 308 308 310 307 309 311 313 311 305 303 305 306 305 306 307 309 312 317 317 317 315 305
316 315 315 316 315 315 316 316 316 315 315 314 313 311 311 314 314 316 318 309 300 293 302 301 302 307 307 307 306 307 306 305 303 299 299 303 303 307 307 304 308 311 310 302 302 305 299
315 316 316 314 314 314 315 316 315 315 314 313 310 309 311 313 316 316 314 305 294 297 299 304 305 304 304 306 307 305 305 303 304 302 299 298 296 303 307 306 304 306 307 299 293 297 299
315 316 315 314 315 315 315 316 315 314 314 312 309 315 315 319 317 316 309 298 298 297 303 303 304 300 302 305 305 305 305 305 307 305 300 298 298 305 305 306 308 304 303 307 301 303 301
315 315 314 314 315 316 316 316 315 314 313 311 312 316 317 319 318 313 308 297 300 302 307 305 300 302 299 302 303 303 303 307 306 306 310 304 299 304 305 306 307 306 308 301 303 295 294
315 315 315 315 316 317 317 316 315 313 312 310 313 315 319 320 315 312 304 303 303 308 308 306 302 302 303 302 303 301 303 306 307 306 308 306 303 302 304 303 304 304 303 304 306 304 299
315 315 316 317 317 317 317 316 314 312 310 309 313 310 320 317 308 304 305 304 302 309 311 308 307 306 304 304 303 303 302 305 307 306 302 306 304 300 302 306 306 307 306 306 300 300 304
315 315 316 317 317 317 317 316 313 311 310 310 311 311 321 315 304 306 307 307 309 308 309 309 306 308 307 305 303 305 305 309 308 306 305 305 302 298 300 302 305 303 304 306 306 307 305
314 315 316 317 317 317 317 315 313 311 311 313 313 309 313 313 309 306 304 305 305 310 309 310 309 309 308 303 305 302 304 306 310 308 318 309 303 302 298 302 306 304 303 304 306 302 303
314 315 316 317 317 317 317 315 313 311 310 314 308 305 305 305 305 305 305 304 304 304 310 310 308 308 306 302 305 302 306 308 311 316 312 306 303 303 304 305 304 305 306 304 305 307 304
314 315 317 316 317 317 317 316 314 312 310 310 305 303 306 301 302 303 301 303 303 304 305 305 305 307 307 304 306 304 306 307 306 310 309 305 304 301 301 304 302 302 306 306 306 307 308
314 315 316 317 317 317 317 316 315 313 311 310 310 310 307 298 301 301 301 300 302 303 305 309 307 306 306 307 308 311 312 311 310 308 307 306 305 303 300 305 302 299 304 306 308 311 312
313 314 316 316 316 316 316 316 315 314 312 311 311 309 303 299 300 301 301 300 300 301 300 304 306 306 311 313 314 314 311 310 309 308 309 307 305 305 302 304 297 307 312 311 310 312 312
313 313 315 316 316 315 315 316 316 315 313 313 312 310 306 298 300 300 300 300 301 303 302 304 306 310 311 309 306 303 304 306 308 310 307 308 307 303 301 301 305 307 310 309 309 310 314
312 312 314 315 315 315 314 314 315 315 313 312 312 314 310 300 299 302 300 300 298 299 300 302 308 310 310 308 304 298 296 300 300 304 308 307 308 305 304 298 296 308 311 314 314 306 317
312 312 312 314 314 314 314 314 314 314 313 310 310 312 308 300 304 304 301 300 303 300 297 301 302 302 309 306 301 299 298 305 299 299 300 302 303 300 302 300 304 313 314 314 303 310 314
311 311 311 312 312 314 314 314 314 314 313 312 310 312 308 302 303 305 306 302 302 302 297 301 301 303 304 302 302 303 301 303 303 304 302 301 301 301 304 301 299 313 311 309 316 316 316
311 311 311 311 311 311 312 313 313 313 313 312 307 311 312 304 303 308 308 310 308 308 304 302 301 301 301 301 304 306 303 306 304 299 310 302 305 302 305 306 315 317 315 318 320 318 319
Wind_Speed
11 13 15 13 11 13 14 15 15 14 15 15 15 15 16 16 17 17 16 15 14 13 10 8 5 4 4 3 5 4 11 13 9 7 5 5 4 3 2 2 2 1 1 5 4 5 4
12 14 14 14 14 14 15 16 15 16 16 16 16 15 15 16 17 17 17 17 15 12 9 6 3 3 2 4 3 5 12 12 10 6 5 4 2 3 5 3 1 4 7 5 3 5 4
13 13 14 15 15 15 15 16 17 17 17 17 17 16 15 16 17 17 17 18 16 11 7 4 4 3 1 8 3 7 10 4 6 4 4 3 2 2 4 5 4 2 4 4 3 1 2
13 14 15 14 14 14 15 17 17 17 17 17 17 17 17 16 16 18 19 17 13 7 3 4 4 2 6 1 4 7 4 4 1 1 1 3 6 7 2 7 3 2 2 2 4 4 3
13 14 14 15 15 15 15 16 16 16 16 17 17 18 18 17 17 18 18 15 7 3 6 7 3 2 5 3 4 6 6 5 6 2 1 4 2 4 4 4 3 0 4 2 2 8 3
15 15 15 16 16 15 16 16 16 16 17 17 18 18 18 18 19 17 13 5 9 8 4 3 1 3 5 3 4 6 4 8 4 6 3 2 3 3 3 5 3 2 5 2 4 8 7
16 16 16 17 17 16 17 17 18 18 18 18 18 19 19 18 20 16 0 4 3 3 3 6 3 2 1 3 5 4 4 7 4 3 6 3 7 13 9 9 2 3 5 7 2 5 9
16 16 17 17 17 17 17 18 18 18 19 19 19 19 19 19 16 8 2 3 4 3 6 10 10 8 5 1 2 3 9 9 7 8 4 5 15 7 4 6 7 6 8 7 1 5 10
15 15 16 16 16 17 17 18 18 19 19 19 19 19 19 20 20 3 3 1 3 1 4 4 5 6 5 10 5 7 13 7 8 8 8 11 2 9 7 5 7 9 9 7 4 5 5
14 14 14 15 16 17 18 18 18 19 20 20 20 18 17 24 2 3 2 4 6 4 3 3 4 4 6 7 6 6 11 9 4 12 5 7 6 6 4 7 8 13 4 9 7 6 4
15 15 15 16 17 17 18 18 19 19 20 20 19 18 15 8 6 4 4 6 2 4 3 3 3 3 2 11 6 6 5 6 10 8 7 7 6 13 17 16 8 5 4 1 4 3 5
16 16 17 18 19 20 20 20 19 20 21 21 19 17 14 3 3 4 6 5 3 3 5 3 4 4 9 5 3 5 6 3 2 6 4 13 1 5 15 6 9 6 8 8 5 1 4
16 17 18 19 19 20 21 22 22 23 23 24 22 16 4 2 0 6 7 3 3 4 2 3 2 3 9 10 5 6 12 13 10 8 11 9 13 9 4 7 4 7 6 1 2 2 4
16 16 17 19 21 22 21 22 23 23 24 25 24 9 6 3 4 8 2 3 5 0 2 2 3 2 10 8 8 6 11 12 10 3 3 11 10 10 10 15 8 12 8 4 5 5 5
16 16 18 19 20 22 22 23 23 25 25 25 16 1 2 4 3 3 2 5 3 3 2 6 4 1 4 5 4 8 10 16 12 16 7 6 6 2 7 6 10 7 7 1 3 1 5
16 17 19 20 21 21 21 23 24 26 27 22 2 1 5 6 3 2 1 1 0 2 4 1 2 2 0 1 5 8 10 6 11 18 21 7 7 5 2 6 3 6 11 5 3 5 7
17 17 18 19 19 20 21 23 25 27 29 14 1 2 2 1 3 2 1 0 2 3 3 3 1 2 2 2 1 3 4 3 7 9 16 10 6 3 1 10 14 6 6 2 2 3 4
17 16 17 18 19 20 22 23 24 26 28 5 2 3 4 3 2 1 2 3 4 3 2 2 2 4 4 2 4 5 5 5 3 9 12 11 9 13 18 1 1 4 7 14 9 8 1
16 16 18 18 19 20 22 23 24 25 17 4 3 3 2 4 2 2 2 2 2 3 4 3 2 3 2 3 4 7 7 8 6 10 10 10 8 7 6 7 3 5 7 8 5 4 7
16 16 17 17 18 19 21 23 24 26 18 2 1 1 4 4 2 3 4 2 4 3 2 4 2 1 3 2 1 5 4 5 12 6 5 11 6 10 9 7 4 6 8 11 12 6 7
15 16 16 15 16 19 21 22 24 26 18 2 5 3 2 3 3 3 2 1 3 3 3 4 2 6 5 4 4 2 4 9 8 5 4 9 9 8 14 11 8 11 11 15 13 11 10
14 15 16 14 15 18 19 21 23 27 17 5 3 3 2 2 4 4 3 3 4 4 4 3 4 11 7 5 4 7 8 4 5 6 5 3 6 3 6 3 10 13 11 15 13 7 4
13 15 15 13 13 16 18 19 21 23 14 4 2 1 2 2 2 3 1 2 1 8 5 6 8 11 9 3 12 16 13 15 15 12 7 5 4 5 7 1 5 5 15 16 13 11 11
12 15 16 11 12 15 16 17 17 18 12 2 2 2 3 1 2 2 2 7 8 5 8 12 13 8 6 17 17 15 12 14 13 15 16 6 2 2 4 3 16 1 4 15 19 15 13
12 13 15 15 11 13 15 15 15 15 16 3 2 2 3 4 3 7 0 3 10 10 8 10 12 9 13 9 7 9 9 13 20 17 17 18 6 4 7 8 5 4 4 6 11 12 16
11 11 13 14 14 11 13 14 15 14 14 3 2 2 2 3 2 2 5 4 4 5 6 4 8 10 5 4 6 9 7 4 6 11 5 14 9 7 4 14 16 6 4 4 2 10 11
10 10 11 12 14 10 11 13 13 14 12 3 2 4 2 3 3 4 5 4 2 4 5 9 6 5 2 4 8 9 10 4 7 5 5 5 6 12 11 12 16 5 8 5 4 4 11
9 9 10 11 11 12 11 11 11 11 12 5 2 1 2 3 8 9 11 11 9 6 6 4 6 3 3 5 4 5 6 8 8 7 4 5 5 9 13 15 15 3 4 21 4 6 8
8 9 9 10 11 11 10 10 10 10 10 6 2 2 2 4 6 6 12 13 10 12 3 3 4 6 3 4 2 4 4 2 4 6 9 7 4 6 6 8 5 5 1 3 6 5 6
Wind_Direction
7 9 6 359 358 354 350 351 350 352 349 349 345 342 339 338 337 333 328 328 325 320 313 305 289 281 261 219 257 35 160 160 154 166 185 174 183 166 129 129 139 233 70 49 109 122 112
2 3 6 1 358 355 354 353 350 351 347 346 343 340 338 340 337 333 330 328 323 316 303 287 260 254 243 229 66 116 139 148 162 166 176 190 220 132 102 66 62 67 86 101 105 107 112
9 5 5 1 358 355 352 350 351 349 347 344 342 339 338 338 338 332 328 323 318 312 285 237 199 233 219 249 66 133 150 179 168 167 168 200 127 85 144 120 111 111 105 117 121 138 120
6 4 3 360 356 354 353 353 351 347 344 342 339 338 337 334 328 327 326 320 311 296 185 166 173 224 253 172 94 156 170 110 139 82 20 115 110 98 32 122 119 186 185 262 166 193 168
4 2 0 360 357 354 352 350 347 344 341 339 335 333 332 326 325 327 323 318 296 163 140 150 175 268 258 126 216 172 186 146 128 124 74 105 64 81 146 170 173 279 323 257 192 203 186
4 2 1 360 356 350 348 346 343 340 338 335 333 332 328 329 332 331 315 280 121 115 130 216 250 248 233 196 160 151 170 153 126 126 136 167 84 159 150 202 278 306 320 276 242 192 213
4 1 360 358 354 349 346 344 340 338 336 333 332 330 327 331 333 339 295 130 189 159 219 218 192 251 279 115 154 174 166 154 121 151 190 177 216 223 221 217 228 280 291 301 260 179 197
2 360 357 354 350 347 344 340 337 334 332 330 329 327 329 330 331 331 268 245 92 13 292 233 244 270 267 21 139 153 163 168 178 203 160 178 227 222 188 222 239 252 286 288 178 157 204
2 359 357 352 348 344 340 336 333 330 328 326 325 326 328 331 322 184 265 248 51 204 257 285 198 224 222 186 222 195 183 159 170 185 205 220 280 173 192 212 241 249 266 277 289 132 214
4 360 355 350 347 343 339 335 331 327 324 322 322 326 328 330 241 337 246 122 329 201 285 222 222 238 159 157 218 185 177 163 157 208 182 244 228 220 183 247 236 276 226 251 202 203 288
2 0 358 353 348 344 339 334 329 325 320 318 318 321 325 330 319 231 94 327 126 212 293 103 141 101 144 188 123 175 168 166 186 173 191 212 213 221 241 249 216 284 50 249 188 198 287
4 1 358 355 349 344 339 334 330 326 322 317 318 316 320 163 216 268 321 316 200 225 243 60 123 162 165 196 133 111 165 143 114 166 228 247 242 228 225 218 194 135 103 95 103 247 252
3 359 355 351 351 343 338 335 332 329 325 320 323 312 247 225 246 328 305 191 189 234 354 41 74 160 191 189 179 164 175 186 193 195 219 229 233 243 203 240 140 195 189 219 190 197 279
2 356 353 358 353 350 341 335 332 329 326 324 326 328 178 232 285 335 223 172 207 345 288 341 340 262 201 169 210 158 168 194 215 177 163 219 227 202 190 215 215 194 228 233 254 222 283
359 354 359 357 354 352 344 335 333 332 331 331 319 89 142 327 249 196 201 202 221 206 329 338 317 107 183 200 233 187 194 214 211 199 226 186 245 223 205 172 185 157 206 238 136 106 268
359 356 0 358 355 354 343 337 337 335 334 338 7 34 33 350 135 270 136 197 291 262 323 306 312 8 114 183 218 202 188 205 215 202 212 198 263 243 157 162 81 223 144 170 195 227 256
358 355 354 357 348 346 345 343 341 339 336 332 32 85 17 313 280 47 139 235 295 266 285 281 299 296 271 325 284 228 223 214 216 200 204 197 232 202 212 208 195 159 192 112 116 280 258
355 350 341 345 354 350 348 345 343 344 339 34 343 77 15 301 80 30 83 335 336 334 359 336 290 283 264 285 281 254 255 252 158 150 175 202 213 236 246 213 270 217 227 212 220 197 266
354 351 347 351 353 351 349 347 346 349 0 324 46 325 5 299 69 65 354 321 289 338 350 355 337 352 7 264 252 235 258 277 244 185 177 173 222 229 221 185 150 210 194 207 143 134 192
354 351 349 347 352 353 351 351 350 349 354 346 18 27 16 50 28 29 5 9 316 357 285 341 297 110 337 258 236 292 278 300 341 256 201 175 203 218 232 225 161 182 187 204 206 204 204
352 345 343 342 356 357 357 358 354 352 351 330 10 62 27 7 55 358 268 290 279 307 360 351 179 31 342 286 304 279 323 321 301 318 173 206 238 213 243 252 216 246 195 182 210 203 211
350 340 353 359 10 1 2 3 360 354 346 74 25 353 17 31 317 316 11 53 354 349 317 329 354 335 317 268 323 312 340 332 292 339 325 281 243 193 266 325 233 241 237 200 210 196 222
347 340 353 0 15 3 4 7 7 4 360 58 31 84 309 32 343 275 79 24 41 346 278 279 354 327 293 351 315 288 271 267 270 289 291 287 234 182 248 337 156 239 228 203 193 196 191
347 346 351 358 17 8 4 8 11 10 23 25 38 309 354 329 313 324 295 315 302 309 280 292 307 273 347 328 309 282 244 249 257 253 229 255 268 227 203 191 235 94 300 224 205 194 195
344 346 350 357 8 15 9 7 10 10 10 19 26 5 355 298 276 291 228 302 305 298 264 277 280 302 323 303 283 267 251 270 278 245 208 215 204 234 223 227 286 232 143 173 198 220 205
339 343 348 350 353 13 11 11 10 8 10 4 19 333 305 301 243 264 297 291 306 318 295 268 311 308 261 253 240 242 242 212 265 313 231 193 218 222 219 229 234 202 125 27 346 243 204
333 337 341 347 349 2 12 8 11 7 4 13 348 21 298 271 275 232 239 300 266 266 274 292 319 315 282 223 239 238 233 234 218 266 334 209 173 208 223 244 240 255 115 94 199 250 317
325 329 332 335 341 353 357 357 2 5 3 2 305 18 345 256 276 250 255 268 255 256 256 323 294 186 276 249 247 229 245 219 233 209 307 304 257 199 210 218 235 135 139 185 207 308 318
314 322 327 331 330 331 334 340 352 356 359 5 304 2 342 239 277 300 274 264 250 246 295 212 303 323 284 286 269 278 263 248 235 236 154 215 8 310 289 217 2 328 90 93 24 326 329